Mountain Home, AR

1:45 AM CDT on October 23, 2019 (GMT -0500)
Baxter County Regional

Weather History for KBPK - August, 2019

Change the Weather History Date:

Sunday, August 11, 2019

  Actual Average (KFLP) Record (KFLP)
Temperature  
Mean Temperature 82 °F -  
Max Temperature 88 °F 87 °F 102 °F (1999)
Min Temperature 75 °F 64 °F 62 °F (2003)
Cooling Degree Days 16    
Growing Degree Days 32 (Base 50)    
Moisture  
Dew Point 77 °F    
Average Humidity 95    
Maximum Humidity 100    
Minimum Humidity 70    
Precipitation  
Precipitation 0.38 in - - ()
Sea Level Pressure  
Sea Level Pressure 30.00 in    
Wind  
Wind Speed 3 mph (SSE)    
Max Wind Speed 7 mph    
Max Gust Speed -    
Visibility 8 miles    
Events Rain , Thunderstorm    
Averages and records for this station are not official NWS values.
T = Trace of Precipitation, MM = Missing Value Source: NWS Daily Summary

Daily Weather History Graph

Daily Weather History Graph

Search for Another Location

Airport or City:

Astronomy

Aug. 11, 2019 Rise Set
Actual Time 6:24 AM CDT 8:05 PM CDT
Civil Twilight 5:56 AM CDT 8:32 PM CDT
Nautical Twilight 5:23 AM CDT 9:06 PM CDT
Astronomical Twilight 4:47 AM CDT 9:41 PM CDT
Moon 5:40 PM CDT (8/11) 2:48 AM CDT (8/11)
Length of Visible Light 14h 36m
Length of Day
13h 40m
Waxing Gibbous, 87% of the Moon is Illuminated
Aug 11
Waxing Gibbous
Aug 15
Full
Aug 23
Last Quarter
Aug 30
New
Sep 5
First Quarter

Hourly Weather History & Observations

Time (CDT) Temp. Heat Index Dew Point Humidity Pressure Visibility Wind Dir Wind Speed Gust Speed Precip Events Conditions
2:53 AM 75.0 °F - 75.0 °F 100% 29.93 in 9.0 mi Calm Calm - N/A   Clear
3:53 AM 75.0 °F - 75.0 °F 100% 29.93 in 8.0 mi SE 4.6 mph - N/A   Clear
4:53 AM 75.0 °F - 75.0 °F 100% 29.95 in 7.0 mi Calm Calm - N/A   Mostly Cloudy
5:34 AM 75.9 °F - 75.9 °F 100% 29.98 in 8.0 mi SSE 3.5 mph - N/A   Mostly Cloudy
5:44 AM 75.9 °F - 75.9 °F 100% 29.99 in 8.0 mi SSE 3.5 mph - N/A   Mostly Cloudy
5:53 AM 75.9 °F - 75.9 °F 100% 29.96 in 8.0 mi SSE 4.6 mph - N/A   Mostly Cloudy
6:20 AM 75.9 °F - 75.9 °F 100% 30.00 in 8.0 mi SSE 3.5 mph - N/A   Overcast
6:36 AM 75.9 °F - 75.9 °F 100% 30.00 in 8.0 mi South 5.8 mph - 0.00 in Rain Light Rain
6:46 AM 75.9 °F - 75.9 °F 100% 30.01 in 9.0 mi SSE 3.5 mph - 0.00 in Rain Light Rain
6:53 AM 75.9 °F - 75.9 °F 100% 29.98 in 9.0 mi SSE 4.6 mph - 0.00 in   Overcast
7:00 AM 75.9 °F - 75.9 °F 100% 30.01 in 8.0 mi South 4.6 mph - N/A   Overcast
7:09 AM 75.9 °F - 75.9 °F 100% 30.02 in 8.0 mi SSE 3.5 mph - N/A Thunderstorm Overcast
7:44 AM 75.9 °F - 75.9 °F 100% 30.03 in 7.0 mi Calm Calm - N/A   Overcast
7:53 AM 75.9 °F - 75.9 °F 100% 30.00 in 7.0 mi Calm Calm - N/A Thunderstorm Overcast
8:07 AM 75.9 °F - 75.9 °F 100% 30.04 in 8.0 mi East 3.5 mph - N/A Thunderstorm Overcast
8:17 AM 75.9 °F - 75.9 °F 100% 30.05 in 7.0 mi ENE 3.5 mph - N/A Thunderstorm Overcast
8:38 AM 75.9 °F - 75.9 °F 100% 30.04 in 5.0 mi SE 6.9 mph - 0.02 in Rain Light Rain
8:41 AM 75.9 °F - 75.9 °F 100% 30.04 in 6.0 mi SE 6.9 mph - 0.02 in Rain , Thunderstorm Light Rain
8:53 AM 75.9 °F - 75.9 °F 100% 30.00 in 7.0 mi SE 5.8 mph - 0.02 in Thunderstorm Overcast
9:07 AM 75.9 °F - 75.9 °F 100% 30.04 in 4.0 mi SE 4.6 mph - 0.01 in Rain , Thunderstorm Light Rain
9:14 AM 75.9 °F - 75.9 °F 100% 30.04 in 7.0 mi SE 4.6 mph - 0.01 in Rain Light Rain
9:27 AM 77.0 °F - 77.0 °F 100% 30.04 in 8.0 mi ESE 3.5 mph - 0.01 in Thunderstorm Overcast
9:45 AM 77.0 °F - 77.0 °F 100% 30.05 in 9.0 mi Calm Calm - 0.01 in Thunderstorm Overcast
9:51 AM 77.0 °F - 77.0 °F 100% 30.05 in 3.0 mi Calm Calm - 0.04 in Rain Rain
9:52 AM 77.0 °F - 77.0 °F 100% 30.02 in 2.5 mi Calm Calm - 0.05 in Rain Heavy Rain
10:00 AM 77.0 °F - 77.0 °F 100% 30.04 in 1.0 mi Calm Calm - 0.07 in Rain Heavy Rain
10:25 AM 77.0 °F - 77.0 °F 100% 30.04 in 1.0 mi Variable 3.5 mph - 0.30 in Rain , Thunderstorm Heavy Rain
10:41 AM 77.0 °F - 77.0 °F 100% 30.06 in 8.0 mi Calm Calm - 0.31 in Thunderstorm Overcast
10:53 AM 77.0 °F - 77.0 °F 100% 30.03 in 8.0 mi East 5.8 mph - 0.31 in Thunderstorm Overcast
11:00 AM 77.0 °F - 77.0 °F 100% 30.05 in 8.0 mi East 4.6 mph - N/A   Overcast
11:19 AM 78.1 °F - 77.0 °F 96% 30.04 in 10.0 mi South 3.5 mph - 0.00 in Rain Light Rain
11:53 AM 80.1 °F 86.4 °F 78.1 °F 94% 30.01 in 10.0 mi SSE 5.8 mph - 0.00 in   Mostly Cloudy
12:01 PM 80.1 °F 86.4 °F 78.1 °F 94% 30.04 in 10.0 mi South 5.8 mph - N/A   Mostly Cloudy
12:21 PM 81.0 °F 87.9 °F 77.0 °F 88% 30.05 in 10.0 mi Variable 3.5 mph - N/A   Overcast
12:53 PM 84.0 °F 94.8 °F 78.1 °F 82% 30.00 in 10.0 mi SSW 4.6 mph - N/A   Scattered Clouds
1:53 PM 84.0 °F 93.7 °F 77.0 °F 79% 29.99 in 10.0 mi Calm Calm - N/A   Partly Cloudy
2:53 PM 84.9 °F 95.3 °F 77.0 °F 77% 29.97 in 10.0 mi Calm Calm - N/A   Clear
3:53 PM 86.0 °F 98.3 °F 78.1 °F 77% 29.95 in 10.0 mi Calm Calm - N/A   Partly Cloudy
4:53 PM 88.0 °F 100.2 °F 77.0 °F 70% 29.95 in 10.0 mi SSE 5.8 mph - N/A   Clear
5:53 PM 87.1 °F 98.8 °F 77.0 °F 72% 29.93 in 10.0 mi South 4.6 mph - N/A   Partly Cloudy
6:53 PM 84.9 °F 96.6 °F 78.1 °F 80% 29.91 in 10.0 mi SW 3.5 mph - N/A   Clear
7:53 PM 82.0 °F 90.2 °F 77.0 °F 85% 29.92 in 10.0 mi SSW 3.5 mph - N/A   Clear
8:53 PM 80.1 °F 85.8 °F 77.0 °F 90% 29.91 in 10.0 mi South 3.5 mph - N/A   Clear
9:53 PM 79.0 °F - 77.0 °F 94% 29.91 in 10.0 mi SSE 3.5 mph - N/A   Clear
10:53 PM 78.1 °F - 77.0 °F 96% 29.91 in 10.0 mi South 3.5 mph - N/A   Clear
11:53 PM 77.0 °F - 77.0 °F 100% 29.91 in 10.0 mi South 3.5 mph - N/A   Clear